QUIKSCAT

Last updated on Wed Oct 17 2018 00:07:48 GMT+0000 (Coordinated Universal Time)

1 25789U 99034A 18289.14805527 -.00000006 00000-0 11248-4 0 9993 2 25789 98.6033 116.1856 0099189 177.2262 182.9502 14.49316796 6578

Satellite not in orbit

QUIKSCAT